Location: Pedholt
(56.0260°N, 10.2097°E)
Time: 07:16:07
(UTC+00:00)

Vanguard 3 - Pass Details

Date: 06 August 2021
Orbit: 510 x 3260 km, 33.4° (Epoch: 26 September)

Event Time Altitude Azimuth Distance (km) Brightness Sun altitude
Rises 20:37:29 0° 263° (W) 6,305 12.2 -9.4°
Reaches altitude 10° 20:42:37 10° 251° (WSW) 5,642 11.7 -9.9°
Maximum altitude 20:54:56 24° 208° (SSW) 5,061 10.9 -11.0°
Enters shadow 21:08:12 10° 165° (SSE) 6,090 11.0 -12.0°
